Theta_e
297 300 302 301 302 303 296 295 295 296 296 299 305 314 314 321 329 323 327 325 322 325 326 326 330 333 332 328 331 348 351 350 352 354 355 356 355 357 357 353 355 355 350 351
296 303 302 300 303 303 303 301 297 297 300 311 323 324 325 324 324 323 323 331 332 333 332 330 330 333 334 330 333 339 351 351 347 346 347 344 349 353 354 351 354 354 355 352
292 298 300 296 300 302 302 300 303 303 305 317 319 322 325 326 327 328 332 333 334 335 334 334 332 332 332 334 339 343 347 345 345 345 343 342 343 347 353 353 353 352 353 353
293 295 289 299 304 307 309 312 311 312 316 319 320 322 323 326 326 328 330 330 332 331 331 337 338 338 339 338 337 336 336 336 336 336 337 338 336 337 339 342 344 343 341 337
293 291 296 302 306 305 306 306 311 309 311 314 321 316 316 324 329 327 326 325 331 335 334 335 337 338 335 333 336 337 336 336 336 337 333 335 334 332 328 330 334 333 335 334
293 291 291 300 308 309 309 300 312 311 310 310 310 302 307 321 325 326 327 329 330 335 334 333 333 335 332 330 332 336 335 335 335 335 334 330 331 330 325 325 327 332 334 328
294 293 298 305 311 311 297 299 311 311 309 309 306 307 312 320 322 325 324 323 329 331 334 328 331 328 326 327 330 332 338 341 337 332 331 330 333 332 328 327 332 336 339 343
295 293 294 312 310 304 307 308 311 311 310 310 309 311 312 314 314 316 317 319 319 323 328 331 330 328 327 327 332 334 334 336 337 343 344 342 341 340 339 338 338 337 335 335
301 301 309 308 310 311 310 310 310 310 311 312 311 311 313 312 314 316 316 316 318 318 321 326 332 325 323 328 332 333 332 333 334 334 339 341 339 341 338 335 333 331 330 330
302 305 308 310 312 314 314 313 313 313 313 312 311 312 311 311 312 314 317 316 317 318 317 317 326 329 329 329 330 329 331 331 329 325 323 334 342 340 339 336 334 332 331 331
304 306 310 313 313 314 315 315 315 314 314 314 313 311 310 311 313 314 314 315 315 314 314 314 316 319 324 326 324 325 327 326 324 323 322 324 330 339 341 343 339 336 334 335
301 309 308 310 313 316 314 314 313 314 313 314 313 312 312 312 312 312 312 312 313 313 313 313 314 316 317 323 327 327 327 327 327 327 329 327 327 333 321 321 319 315 315 323
308 311 311 314 315 316 313 314 314 313 313 312 313 313 312 310 310 313 315 315 315 315 314 314 314 314 316 316 317 316 322 327 327 324 327 330 330 325 322 317 312 309 304 303
313 313 310 313 311 315 315 316 315 313 313 314 313 312 311 313 315 315 314 315 316 315 314 314 313 312 316 316 316 313 313 314 317 318 321 321 321 320 314 311 313 314 308 309
314 313 312 312 312 313 313 312 310 311 313 313 313 313 317 315 314 314 315 315 314 312 310 310 311 312 312 314 315 314 314 314 314 314 316 319 320 318 317 314 312 311 311 309
313 313 313 312 310 310 310 309 309 310 312 314 316 317 317 316 315 314 313 312 309 308 309 310 311 312 313 314 313 313 313 316 314 313 314 317 319 318 317 314 311 312 311 311
309 308 309 308 308 308 309 309 311 314 316 316 316 318 317 315 312 311 310 310 309 310 311 310 310 314 315 316 314 310 312 314 319 317 317 317 317 317 317 316 312 313 312 313
314 312 312 310 308 308 309 313 316 316 316 317 317 317 314 310 308 308 308 310 311 310 311 313 314 315 315 315 317 310 313 316 316 316 318 317 316 316 315 313 313 312 313 314
314 312 312 311 310 311 311 314 317 318 317 317 315 313 311 308 308 309 310 309 308 307 310 313 319 317 316 315 319 313 314 313 314 313 317 315 316 315 315 315 314 314 314 313
313 312 313 313 313 313 315 317 318 316 317 316 313 310 307 308 308 310 309 308 308 310 311 313 315 315 319 320 322 319 318 316 316 314 314 314 313 313 314 311 314 315 315 315
311 314 313 313 316 317 318 318 318 316 317 313 309 307 307 309 309 309 307 307 311 310 313 316 315 315 318 320 320 319 319 318 315 313 314 312 312 314 314 315 317 316 316 316
312 312 315 316 316 318 319 319 318 317 313 311 309 309 309 308 308 309 309 308 310 312 313 312 313 317 317 321 319 319 319 318 320 318 313 311 311 312 312 313 314 315 316 316
312 314 316 316 316 318 319 319 317 315 312 310 309 309 309 310 310 308 307 311 311 312 311 312 314 316 316 317 317 316 317 317 318 319 318 318 318 318 317 316 315 316 315 316
313 316 316 318 319 317 315 315 316 315 314 311 311 311 311 311 311 312 313 312 312 312 312 312 314 315 314 313 315 315 314 314 315 316 317 311 318 319 318 319 318 318 319 317
316 317 317 317 315 314 315 315 314 314 312 311 312 313 314 313 312 314 315 316 313 312 313 314 315 315 312 312 313 313 312 313 312 314 315 316 317 317 318 318 318 317 318 318
316 316 317 318 317 317 316 316 314 314 313 313 315 317 317 317 317 317 316 316 316 312 313 314 312 307 310 310 311 313 313 313 313 313 312 316 316 317 317 317 317 317 317 317
317 313 315 315 316 316 316 314 313 313 314 314 314 316 318 319 319 317 316 317 316 315 303 301 300 303 305 308 306 305 305 308 305 311 312 311 310 309 310 309 309 310 313 311
Wind_Speed
5 6 1 3 6 8 2 5 4 8 6 6 9 10 5 4 7 10 7 6 6 3 6 7 8 6 3 2 4 7 13 14 16 14 14 14 13 12 11 9 11 12 13 12
5 7 7 4 7 8 6 4 1 4 7 5 8 12 12 8 6 6 7 7 3 1 4 9 10 11 8 4 8 6 13 15 9 11 11 10 9 11 8 7 7 9 10 11
6 5 5 7 5 5 4 3 7 7 1 5 16 18 12 10 16 13 10 10 5 3 6 2 7 12 15 17 10 8 11 9 15 12 4 3 4 6 7 9 7 7 5 5
5 4 4 11 6 4 9 7 9 11 8 8 10 5 6 5 6 7 6 4 3 3 8 11 15 18 11 6 6 12 13 10 12 9 7 16 16 6 6 5 7 7 7 5
4 4 5 8 6 4 7 4 2 11 7 4 7 6 7 4 2 4 4 8 7 12 12 8 14 19 13 7 4 3 2 2 4 21 6 13 15 9 5 4 4 6 6 9
3 5 6 8 6 1 5 3 4 8 7 8 6 6 4 6 5 6 5 4 4 7 7 9 6 9 2 1 3 5 7 9 10 7 7 9 9 11 5 4 6 5 6 8
4 4 7 7 4 2 2 7 2 7 6 9 7 4 4 2 4 3 3 7 6 1 6 7 7 7 9 8 8 7 5 7 6 6 7 6 5 4 4 5 4 5 6 6
3 3 3 3 4 5 7 3 7 6 5 8 6 6 7 7 7 6 6 6 8 7 4 4 6 4 5 7 9 7 5 5 7 7 7 6 7 5 4 5 5 4 5 6
9 8 7 1 10 7 7 8 4 7 5 7 7 6 6 4 7 8 6 5 5 6 8 8 5 3 5 8 6 5 5 6 6 6 4 6 6 6 4 5 4 5 4 3
4 4 4 4 5 7 8 8 6 6 7 7 8 6 4 3 4 5 5 7 6 9 8 7 7 7 8 8 8 7 8 9 6 5 6 6 4 6 6 5 4 4 4 5
2 4 8 3 6 8 7 8 8 7 8 8 7 3 3 5 6 5 4 4 4 5 4 6 5 4 6 8 6 10 12 10 8 6 7 8 10 7 3 7 7 5 6 7
6 8 6 6 6 8 8 6 7 9 5 4 6 7 7 6 3 2 5 5 6 7 5 6 7 8 6 5 4 7 10 11 11 11 10 9 11 10 10 13 10 11 13 7
6 6 6 9 9 5 8 8 7 8 8 9 6 7 5 3 4 6 5 3 3 4 5 3 5 7 8 2 1 4 7 9 8 10 10 12 11 7 8 5 11 13 11 9
5 6 2 3 6 8 10 9 12 8 7 6 5 3 4 6 4 3 3 2 3 3 5 5 4 5 6 8 7 6 6 9 2 3 4 4 7 10 5 5 4 3 8 5
7 7 7 8 8 8 9 9 10 7 5 5 5 6 7 5 4 3 4 4 4 4 5 6 8 12 7 7 6 9 10 7 6 5 7 7 4 9 12 5 5 4 3 1
5 8 9 9 9 9 10 8 9 5 6 6 7 7 4 3 2 4 5 6 6 7 8 8 9 10 8 9 10 9 10 16 11 8 7 8 6 7 9 10 4 3 1 1
10 7 10 8 9 7 8 6 7 8 7 7 5 3 4 4 4 4 6 5 5 7 8 7 8 7 8 9 10 6 7 7 8 7 5 5 7 7 5 11 6 3 2 4
9 8 12 14 10 8 6 7 8 7 6 6 5 6 5 3 2 4 5 6 7 7 6 7 7 7 7 8 8 5 3 4 4 4 4 4 4 5 8 8 5 3 3 3
16 16 13 11 9 9 8 7 6 7 7 6 7 5 4 1 2 4 6 5 5 6 6 7 12 13 9 10 10 4 6 7 6 4 4 5 5 5 5 4 3 3 4 3
13 10 11 10 9 9 8 6 8 7 6 7 6 4 2 3 3 5 4 3 3 5 6 7 8 8 10 10 12 6 7 7 8 8 5 4 4 5 5 5 4 3 4 5
13 13 11 10 8 8 7 7 8 7 6 7 6 3 2 4 4 3 2 3 5 7 7 8 6 7 9 13 10 7 7 7 8 8 6 5 5 5 4 3 4 3 4 3
12 10 9 8 8 6 6 7 8 7 7 6 4 2 1 2 1 2 2 4 4 8 4 5 5 11 11 16 8 8 8 10 8 5 2 3 4 4 5 4 4 4 4 4
9 8 8 8 8 7 6 8 7 8 7 6 5 4 3 4 3 3 3 5 4 6 4 5 9 12 14 8 7 8 10 10 10 9 6 4 3 5 6 5 4 4 4 4
7 7 7 6 8 7 8 5 6 6 6 6 5 5 4 2 3 4 4 4 6 6 4 5 7 12 8 5 6 7 7 8 8 9 9 9 7 7 10 4 3 3 0 1
7 6 6 8 7 5 7 6 5 3 4 3 5 5 7 5 5 3 3 2 5 3 5 8 8 8 4 5 5 5 5 5 5 7 7 8 8 8 8 8 8 8 8 7
5 4 5 8 7 5 5 5 4 3 3 3 3 4 4 4 5 4 3 3 1 3 3 5 4 2 2 5 5 5 5 5 6 5 5 6 6 6 7 7 8 8 7 6
6 6 5 5 4 4 5 5 5 4 5 4 3 4 4 5 5 5 6 5 3 0 2 1 1 3 2 1 3 4 4 4 4 4 5 5 5 5 6 5 5 5 5 5
Wind_Direction
244 232 318 299 326 322 346 226 174 250 218 310 267 221 225 219 146 146 165 174 183 239 266 236 248 265 109 100 210 214 201 201 201 200 205 216 213 210 211 198 195 193 196 198
325 317 358 315 300 315 328 272 29 21 63 315 43 52 31 3 22 89 91 60 356 4 336 316 317 310 318 307 292 250 221 206 178 180 183 184 190 187 189 200 201 191 197 197
286 310 357 334 255 273 269 289 151 77 156 277 55 57 46 43 65 71 90 136 169 210 219 181 342 340 326 322 324 293 230 196 186 173 181 311 134 103 193 191 172 187 178 161
227 39 337 242 266 230 103 78 86 93 134 97 108 105 64 0 96 143 165 150 225 312 358 48 93 34 357 14 26 357 335 345 19 343 60 50 311 233 216 171 168 157 152 170
152 180 278 324 327 152 130 21 44 103 95 118 172 122 44 11 82 292 41 196 118 101 109 104 113 153 222 97 39 144 208 36 43 261 125 182 225 230 203 193 177 154 172 193
138 155 212 229 284 174 112 38 318 107 108 93 70 64 290 316 336 1 16 321 322 107 127 139 169 201 187 233 148 255 221 209 218 233 215 181 207 238 211 196 205 164 203 203
159 181 273 239 283 351 142 214 134 91 80 65 75 161 235 326 36 22 2 350 323 308 158 198 204 181 189 228 227 235 240 218 216 203 210 219 222 224 217 220 217 198 198 224
88 141 256 234 45 136 196 171 130 101 105 94 105 66 49 34 28 31 30 14 5 356 28 193 210 216 216 246 251 235 222 214 189 198 187 201 197 236 234 226 196 204 209 233
166 206 210 257 141 160 155 134 132 114 131 110 93 86 74 41 8 356 30 70 69 63 20 2 331 321 248 253 265 289 302 281 285 282 224 181 171 196 207 214 218 230 232 274
70 353 167 110 83 111 125 126 131 116 109 96 108 87 68 28 13 42 27 32 34 42 38 29 352 314 273 295 300 312 277 276 292 304 310 322 295 206 176 194 202 224 225 231
336 274 58 37 125 135 122 123 114 93 108 119 104 76 80 42 60 57 47 33 57 76 46 354 351 329 301 287 262 260 268 269 266 269 271 275 278 292 232 249 219 204 216 220
223 231 155 195 179 141 123 125 110 114 92 102 76 76 93 92 113 79 38 25 27 16 13 338 338 329 327 355 301 256 265 270 268 263 260 262 258 257 243 250 245 231 239 207
215 182 197 162 165 148 115 119 125 102 82 92 77 87 98 129 78 90 93 61 10 323 307 295 309 320 309 295 242 322 297 282 275 260 262 254 241 227 239 266 247 240 233 217
174 116 90 144 145 131 119 105 99 95 88 89 99 95 88 93 99 85 45 309 299 333 325 308 291 266 270 289 288 257 242 244 259 304 331 3 335 286 211 196 212 230 214 191
181 167 174 130 126 117 104 107 90 90 92 68 56 80 95 85 55 11 340 344 342 336 307 323 325 311 285 273 258 282 277 252 227 236 244 255 288 350 306 250 188 212 296 5
159 114 115 119 100 106 103 90 97 92 76 82 80 66 76 87 35 359 346 354 6 328 324 317 296 290 293 308 279 274 275 268 226 223 226 217 180 152 287 281 247 217 218 308
122 112 110 109 119 115 112 122 109 115 108 91 91 73 71 41 13 349 338 325 324 332 307 284 274 295 298 292 283 277 290 298 254 254 252 218 180 181 204 265 264 255 240 211
151 136 137 136 138 129 114 107 120 116 113 121 101 105 105 61 323 313 314 354 337 324 299 297 297 292 276 297 304 272 285 299 288 288 284 206 200 214 220 227 235 259 289 301
129 131 132 130 134 125 124 126 118 119 114 107 104 104 110 27 297 304 0 342 348 332 307 314 327 338 320 310 321 292 297 298 296 275 257 277 271 243 228 220 235 244 253 262
127 120 116 115 114 114 119 127 125 120 126 115 116 99 69 288 317 348 330 287 297 266 289 315 332 335 343 328 328 305 292 287 280 283 282 261 267 274 279 267 259 266 259 254
122 118 116 113 114 118 124 135 126 126 133 125 123 151 217 299 329 294 287 357 289 301 308 330 332 345 354 353 350 339 329 303 277 271 275 284 291 276 256 270 287 260 251 242
119 116 120 123 116 118 130 131 130 130 131 134 146 132 349 316 27 196 227 214 270 280 303 316 321 330 343 354 349 352 345 339 341 335 257 304 291 291 286 276 265 274 286 280
116 121 122 118 125 134 126 132 140 137 146 156 176 207 222 246 222 171 286 253 249 270 297 310 311 330 348 351 355 0 4 4 8 10 11 358 316 291 272 260 255 265 280 278
117 116 126 131 126 109 117 143 140 153 165 179 199 219 217 272 289 239 252 259 254 278 293 289 307 322 1 343 352 351 355 1 6 11 15 13 15 19 23 359 291 293 194 195
122 128 116 126 122 131 139 153 140 151 179 215 247 253 249 222 200 244 219 249 267 288 312 304 313 324 348 347 345 350 351 355 359 4 11 16 13 13 15 22 37 36 28 32
124 133 141 147 141 144 147 144 162 184 180 250 260 237 244 235 230 214 205 202 260 347 314 316 326 345 340 352 347 342 340 344 351 351 354 7 0 7 15 13 19 23 19 22
104 100 106 100 123 149 152 152 141 166 193 194 248 284 281 283 259 198 173 171 168 251 297 311 346 54 63 317 11 21 32 22 24 8 17 15 13 13 17 16 12 5 10 17